FW0079 Weather Reports


time (UTC)temp
C
wind
direction
speed
KPH
gust
KPH
rain 1hr
cm
rain 24hr
cm
rain mn
cm
humidity
%
barometer
mb
20260506091526 7 30 0.0 0.0 0.00 0.00 0.03 74 776.8
20260506090024 8 30 1.6 0.0 0.00 0.00 0.03 74 776.6
20260506084527 8 30 1.6 0.0 0.00 0.00 0.03 74 776.6
20260506083023 8 30 1.6 0.0 0.00 0.00 0.03 74 776.6
20260506081523 8 30 6.4 0.0 0.00 0.00 0.03 72 776.5
20260506073018 8 28 3.2 0.0 0.00 0.00 0.03 71 776.3
20260506071515 8 28 1.6 0.0 0.00 0.00 0.03 71 776.2
20260506061510 9 101 8.0 0.0 0.00 0.00 0.03 68 775.8
20260506050111 9 101 4.8 0.0 0.00 0.00 0.03 69 775.2
20260506044601 10 26 4.8 0.0 0.00 0.00 0.03 64 775.0
20260506043059 10 36 4.8 0.0 0.00 0.00 0.03 64 774.9
20260506041602 10 40 6.4 0.0 0.00 0.00 0.03 62 774.7
20260506040052 11 360 12.9 0.0 0.00 0.00 0.03 56 774.6
20260506034552 10 5 8.0 0.0 0.00 0.00 0.03 58 774.3
20260506033048 10 360 6.4 0.0 0.00 0.00 0.03 61 774.1
20260506031546 10 341 6.4 0.0 0.00 0.00 0.03 65 773.9
20260506030015 10 360 4.8 0.0 0.00 0.00 0.03 70 773.8
20260506024529 10 360 8.0 0.0 0.00 0.00 0.03 69 773.8
20260506023011 10 360 4.8 0.0 0.00 0.00 0.03 71 773.7
20260506021511 11 314 4.8 0.0 0.00 0.00 0.03 69 773.6
20260506020009 12 313 6.4 0.0 0.00 0.00 0.03 66 773.4
20260506014513 12 355 6.4 0.0 0.00 0.00 0.03 64 773.4
20260506013005 12 333 8.0 0.0 0.00 0.00 0.03 64 773.3
20260506011505 12 25 6.4 0.0 0.00 0.00 0.03 64 773.3
20260506010004 12 26 9.7 0.0 0.00 0.00 0.03 59 773.3
20260506004503 12 85 8.0 0.0 0.00 0.00 0.03 60 773.3
20260506003000 12 26 12.9 0.0 0.00 0.00 0.03 58 773.1
20260506001604 12 47 6.4 0.0 0.00 0.00 0.03 61 773.1
20260506000120 11 63 6.4 0.0 0.00 0.00 0.03 61 773.1
20260505234558 11 62 4.8 0.0 0.00 0.00 0.03 60 773.0
20260505233059 11 62 6.4 0.0 0.00 0.00 0.03 61 773.1
20260505231612 11 76 6.4 0.0 0.00 0.00 0.03 58 773.0
20260505230105 11 69 8.0 0.0 0.00 0.00 0.03 58 773.1
20260505224552 11 62 17.7 0.0 0.00 0.00 0.03 62 773.1
20260505223048 11 76 14.5 0.0 0.00 0.00 0.03 61 773.2
20260505221556 11 68 12.9 0.0 0.00 0.00 0.03 63 773.2
20260505220045 11 38 12.9 0.0 0.00 0.00 0.03 67 773.3
20260505214542 10 60 9.7 0.0 0.00 0.00 0.03 69 773.4
20260505213040 10 29 6.4 0.0 0.00 0.00 0.03 71 773.3
20260505211540 9 34 11.3 0.0 0.00 0.00 0.03 71 773.4
20260505210033 9 77 14.5 0.0 0.00 0.00 0.03 74 773.4
20260505204543 9 72 16.1 0.0 0.00 0.00 0.03 76 773.3
20260505203026 8 82 19.3 0.0 0.00 0.00 0.03 79 773.2
20260505201526 8 71 19.3 0.0 0.00 0.00 0.03 83 773.2
20260505200022 7 74 14.5 0.0 0.00 0.00 0.00 88 773.3
20260505194523 7 80 12.9 0.0 0.00 0.00 0.00 92 773.3
20260505193050 7 80 11.3 0.0 0.00 0.00 0.00 91 773.3
20260505191558 6 67 9.7 0.0 0.00 0.00 0.00 88 773.3
20260505190041 5 98 8.0 0.0 0.00 0.00 0.00 85 773.2
20260505184541 5 80 11.3 0.0 0.00 0.00 0.00 83 773.1
20260505183040 5 71 11.3 0.0 0.00 0.00 0.00 82 772.9
20260505181537 4 75 9.7 0.0 0.00 0.00 0.00 81 772.9
20260505180040 4 59 9.7 0.0 0.00 0.00 0.00 81 772.7
20260505174532 4 58 6.4 0.0 0.00 0.00 0.00 81 772.6
20260505173029 3 45 6.4 0.0 0.00 0.00 0.00 81 772.5
20260505171525 3 46 6.4 0.0 0.00 0.00 0.00 82 772.4
20260505170023 3 68 11.3 0.0 0.00 0.00 0.00 82 772.3
20260505164519 3 30 6.4 0.0 0.00 0.00 0.00 83 772.2
20260505163018 3 53 4.8 0.0 0.00 0.00 0.00 84 772.0
20260505161515 3 63 6.4 0.0 0.00 0.00 0.00 85 771.9
20260505153008 2 38 8.0 0.0 0.00 0.00 2.49 88 771.6
20260505151512 2 38 8.0 0.0 0.00 0.00 2.49 89 771.4
20260505124541 1 360 0.0 0.0 0.00 0.00 2.36 93 770.5
20260505123029 1 360 0.0 0.0 0.00 0.00 2.36 93 770.4
20260505121541 1 360 0.0 0.0 0.00 0.00 2.34 93 770.4
20260505120026 1 360 0.0 0.0 0.00 0.00 2.34 93 770.3
20260505114525 1 360 0.0 0.0 0.00 0.00 2.31 92 770.3
20260505113026 1 360 0.0 0.0 0.00 0.00 2.31 93 770.3
20260505111533 1 360 0.0 0.0 0.00 0.00 2.29 92 770.4
20260505101519 1 360 0.0 0.0 0.00 0.00 2.26 92 770.5
20260505100031 1 360 1.6 0.0 0.00 0.00 2.26 92 770.5
20260505094518 1 360 4.8 0.0 0.00 0.00 2.24 93 770.6
20260505093025 0 360 3.2 0.0 0.00 0.00 2.24 93 770.8